Preview of NWS' New Version of Forecast
This preview is not operational and should not be used for support decisions.
Latest weather observations around

Bullhead City, Laughlin/Bullhead International Airport (KIFP)

Using English Units (Switch to International System of Units)
Date/ Time (MST) Wind (mph) Vis. (mi) Weather Sky Cond. Temp (°F) Rel. Humidity Wind Chill (°F) Heat Index (°F) Pressure Precip. (in)
Air Dwpt 6 hour Altimeter (inHg) Sea level (inHg) 1 hr 3 hr 6 hr
Max Min
Sep 23 00:15 Calm 10 Clear CLR 81 21     11%   79 29.84        
Sep 22 23:55 Calm 10 Clear CLR 81 21     11%   79 29.84        
Sep 22 23:35 Calm 10 Clear CLR 82        %     29.85        
Sep 22 23:15 ESE 5 10 Clear CLR 81 21     11%   79 29.84        
Sep 22 22:55 ENE 3 10 Clear CLR 84        %     29.85        
Sep 22 22:35 Calm 10 Clear CLR 82 19     10%   79 29.85        
Sep 22 22:15 Calm 10 Clear CLR 84        %     29.85        
Sep 22 21:55 NE 3 10 Clear CLR 84 19     9%   81 29.85        
Sep 22 21:35 ESE 7 10 Clear CLR 84 19     9%   81 29.85        
Sep 22 21:15 Calm 10 Clear CLR 86 19     9%   82 29.85        
Sep 22 20:55 Calm 10 Clear CLR 86        %     29.85        
Sep 22 20:35 Calm 10 Clear CLR 88 19     8%   83 29.85        
Sep 22 20:15 SE 3 10 Clear CLR 88 21     9%   83 29.85        
Sep 22 19:55 Calm 10 Clear CLR 90 21     8%   85 29.84        
Sep 22 19:35 SSW 3 10 Clear CLR 90 19     8%   85 29.83        
Sep 22 19:15 SE 9 10 Clear CLR 91        %     29.83        
Sep 22 18:55 SSE 9 10 Clear CLR 91 18     7%   86 29.82        
Sep 22 18:35 SSE 7 10 Clear CLR 93 18     6%   87 29.82        
Sep 22 18:15 S 9 10 Clear CLR 93 18     6%   87 29.83        
Sep 22 17:55 SSE 10 10 Clear   95        %     29.83        
Sep 22 17:49 SE 9 10 Clear   95        %     29.83        
Sep 22 15:53 SSE 10 10 Cloudy OVC150 93 18     6%   87 29.85        
Sep 22 14:49 SW 7 10 Mostly Cloudy BKN140 95 19     6%   89 29.86        
Sep 22 13:47 SSW 8 20 Mostly Cloudy BKN140 93        %     29.89        
Sep 22 12:58 SW 6 10 Partly Cloudy SCT160 91 23     8%   86 29.91        
Sep 22 11:48 Calm 10 Partly Cloudy SCT150 90 27     10%   85 29.94        
Sep 22 10:49 Calm 10 Partly Cloudy SCT150 82 27     13%   80 29.96        
Sep 22 09:48 Calm 10 Mostly Clear FEW140 79 25     14%   77 29.97        
Sep 22 08:51 Calm 20 Partly Cloudy SCT140 73 25     16%   71 29.96        
Sep 22 07:53 S 7 20 Partly Cloudy SCT140 68 25     19%     29.94        
Sep 22 07:45 S 6 10 Clear CLR 66 27     22%     29.94        
Sep 22 07:35 Calm 10 Clear CLR 66 32     28%     29.94        
Sep 22 07:15 S 6 10 Clear CLR 66 30     26%     29.93        
Sep 22 06:55 Calm 10 Clear CLR 66 28     24%     29.92        
Sep 22 06:35 Calm 10 Clear CLR 66 28     24%     29.91        
Sep 22 06:15 Calm 10 Clear CLR 68 28     23%     29.91        
Sep 22 05:55 NNE 5 10 Clear CLR 66 27     22%     29.9        
Sep 22 05:35 Calm 10 Clear CLR 66 28     24%     29.91        
Sep 22 05:15 S 5 10 Clear CLR 66 30     26%     29.9        
Sep 22 04:55 S 3 10 Clear CLR 68 27     21%     29.89        
Sep 22 04:35 Calm 10 Clear CLR 70 25     18%     29.89        
Sep 22 04:15 Calm 10 Clear CLR 72 25     17%   69 29.88        
Sep 22 03:55 Calm 10 Clear CLR 70 23     17%     29.87        
Sep 22 03:35 Calm 10 Clear CLR 72 23     16%   69 29.87        
Sep 22 03:15 Calm 10 Clear CLR 70 23     17%     29.88        
Sep 22 02:55 Calm 10 Clear CLR 73 23     15%   71 29.88        
Sep 22 02:35 Calm 10 Clear CLR 73 23     15%   71 29.88        
Sep 22 02:15 Calm 10 Clear CLR 73        %     29.88        
Sep 22 01:55 ENE 5 10 Clear CLR 73 23     15%   71 29.89        
Sep 22 01:35 E 3 10 Clear CLR 72 21     15%   69 29.89        
Sep 22 01:15 Calm 10 Clear CLR 75 23     14%   73 29.89        
Sep 22 00:55 Calm 10 Clear CLR 77 21     12%   75 29.88        
Sep 22 00:35 E 6 10 Clear CLR 77 21     12%   75 29.88        
Sep 22 00:15 Calm 10 Clear CLR 79 23     13%   77 29.87        
Sep 21 23:55 Calm 10 Clear CLR 79 23     13%   77 29.87        
Sep 21 23:35 Calm 10 Clear CLR 79 23     13%   77 29.87        
Sep 21 23:15 Calm 10 Clear CLR 79 21     12%   77 29.87        
Sep 21 22:55 Calm 10 Clear CLR 79        %     29.87        
Sep 21 22:35 Calm 10 Clear CLR 81 25     13%   79 29.87        
Sep 21 22:15 NE 7 10 Clear CLR 81 23     12%   79 29.87        
Sep 21 21:55 NE 5 10 Clear CLR 81        %     29.87        
Sep 21 21:35 ENE 5 10 Clear CLR 84 23     11%   81 29.86        
Sep 21 21:15 ENE 6 10 Clear CLR 84 23     11%   81 29.86        
Sep 21 20:55 3 10 Clear CLR 82 23     11%   80 29.85        
Sep 21 20:35 ESE 6 10 Clear CLR 84 25     11%   81 29.85        
Sep 21 20:15 N 11 10 Clear CLR 86 27     12%   82 29.84        
Sep 21 19:55 NNE 8 10 Clear CLR 88 23     9%   83 29.83        
Sep 21 19:35 N 9 10 Clear CLR 88 27     11%   84 29.83        
Sep 21 19:15 N 11 10 Clear CLR 88 28     12%   84 29.82        
Sep 21 18:55 N 11 10 Clear CLR 88 27     11%   84 29.82        
Sep 21 18:35 N 10 10 Clear CLR 90 25     10%   85 29.82        
Sep 21 18:15 NNW 13 10 Clear CLR 91 25     9%   86 29.82        
Sep 21 17:55 NNW 14 10 Clear CLR 91 23     8%   86 29.81        
Sep 21 17:47 NNW 14 20 Clear CLR 91 21     8%   86 29.81        
Sep 21 16:48 NNW 14 10 Clear CLR 91        %     29.81        
Sep 21 15:48 NW 15 10 Clear CLR 93 21     7%   87 29.82        
Sep 21 14:48 NW 14 10 Clear CLR 91 23     8%   86 29.83        
Sep 21 13:48 NW 14 10 Clear CLR 91        %     29.86        
Sep 21 12:50 NNW 17 20 Clear CLR 90 27     10%   85 29.88        
Sep 21 11:50 NNW 21 10 Clear and Windy CLR 86 28     12%   83 29.9        
Sep 21 10:47 NNW 14 20 Clear CLR 84 30     14%   81 29.92        
Sep 21 09:48 NNW 24 10 Clear and Windy CLR 81 30     16%   79 29.92        
Sep 21 08:48 N 17 10 Clear CLR 79 32     18%   77 29.92        
Sep 21 07:48 N 18 10 Clear CLR 75 30     19%   73 29.91        
Sep 21 07:45 NNE 17 10 Clear CLR 77 30     18%   75 29.9        
Sep 21 07:30 NNE 16 10 Clear CLR 75 30     19%   73 29.9        
Sep 21 07:15 NNE 18 10 Clear CLR 75 30     19%   73 29.89        
Sep 21 06:55 NNE 15 10 Clear CLR 75 28     18%   73 29.89        
Sep 21 06:30 N 10 10 Clear CLR 73 27     17%   71 29.88        
Sep 21 06:15 3 10 Clear CLR 75 27     16%   73 29.88        
Sep 21 05:55 Calm 10 Clear CLR 72 30     22%   69 29.87        
Sep 21 05:35 Calm 10 Clear CLR 72 34     25%   70 29.87        
Sep 21 05:15 Calm 10 Clear CLR 70 34     26%     29.86        
Sep 21 04:55 Calm 10 Clear CLR 70 30     23%     29.86        
Sep 21 04:35 Calm 10 Clear CLR 72 28     20%   69 29.85        
Sep 21 04:10 Calm 10 Clear CLR 73 23     15%   71 29.85        
Sep 21 03:55 Calm 10 Clear CLR 70        %     29.84        
Sep 21 03:35 Calm 10 Clear CLR 72 21     15%   69 29.84        
Sep 21 03:15 Calm 10 Clear CLR 73 28     19%   71 29.84        
Sep 21 02:55 Calm 10 Clear CLR 73 27     17%   71 29.84        
Sep 21 02:35 Calm 10 Clear CLR 73 21     14%   71 29.84        
Sep 21 02:15 Calm 10 Clear CLR 75 23     14%   73 29.84        
Sep 21 01:55 NE 3 10 Clear CLR 72 21     15%   69 29.84        
Sep 21 01:35 NE 6 10 Clear CLR 73 21     14%   71 29.84        
Sep 21 01:15 ENE 7 10 Clear CLR 75 19     12%   73 29.84        
Sep 21 00:55 NE 6 10 Clear CLR 73 19     13%   71 29.84        
Sep 21 00:35 ENE 7 10 Clear CLR 75        %     29.83        
Sep 21 00:15 ENE 7 10 Clear CLR 79        %     29.83        
Sep 20 23:55 NE 9 10 Clear CLR 81 23     12%   79 29.82        
Sep 20 23:35 E 9 10 Clear CLR 81 23     12%   79 29.82        
Sep 20 23:15 NNE 3 10 Clear CLR 79 23     13%   77 29.82        
Sep 20 22:55 NNE 6 10 Clear CLR 81 21     11%   79 29.82        
Sep 20 22:35 NE 7 10 Clear CLR 81 21     11%   79 29.81        
Sep 20 22:15 NNE 7 10 Clear CLR 82 21     10%   80 29.81        
Sep 20 21:55 NNE 7 10 Clear CLR 82 21     10%   80 29.8        
Sep 20 21:35 NNE 8 10 Clear CLR 82 23     11%   80 29.8        
Sep 20 21:15 ENE 6 10 Clear CLR 81 21     11%   79 29.8        
Sep 20 20:55 NNE 5 10 Clear CLR 82 25     12%   80 29.8        
Sep 20 20:35 N 7 10 Clear CLR 84 27     12%   81 29.79        
Sep 20 20:15 NNE 10 10 Clear CLR 86 23     10%   82 29.78        
Sep 20 19:55 NNE 10 10 Clear CLR 86 23     10%   82 29.77        
Sep 20 19:35 N 7 10 Clear CLR 86 30     13%   83 29.77        
Sep 20 19:15 NNE 8 10 Clear CLR 86 30     13%   83 29.76        
Sep 20 18:55 N 10 10 Clear CLR 86 30     13%   83 29.76        
Sep 20 18:35 N 10 10 Clear CLR 88 28     12%   84 29.76        
Sep 20 18:15 N 11 10 Clear CLR 88 25     10%   84 29.76        
Sep 20 17:55 NNW 10 10 Clear CLR 90 25     10%   85 29.76        
Sep 20 17:47 NNW 9 20 Clear CLR 90 23     9%   85 29.77        
Sep 20 16:48 NW 14 10 Clear   91        %     29.77        
Sep 20 15:50 NW 11 20 Clear CLR 91 21     8%   86 29.78        
Sep 20 15:48 NNW 9 10 Clear CLR 91 21     8%   86 29.78        
Sep 20 14:48 NNW 10 10 Clear   90        %     29.79        
Sep 20 13:48 NNW 14 20 Clear CLR 90 21     8%   85 29.81        
Sep 20 12:48 N 10 10 Clear CLR 88 25     10%   84 29.83        
Sep 20 11:48 NW 15 10 Clear CLR 86 27     12%   82 29.84        
Sep 20 10:47 N 14 20 Clear CLR 82 28     14%   80 29.86        
Sep 20 09:48 NNW 15 10 Clear CLR 81 30     16%   79 29.86        
Sep 20 08:48 N 13 10 Clear CLR 79 30     17%   77 29.84        
Sep 20 07:48 N 9 10 Clear CLR 77 32     19%   75 29.83        
Sep 20 07:45 NE 6 10 Clear CLR 75 32     21%   73 29.83        
Sep 20 07:35 NNE 5 10 Clear CLR 75 32     21%   73 29.82        
Sep 20 07:15 N 6 10 Clear CLR 73 32     22%   71 29.81        
Sep 20 06:55 N 8 10 Clear CLR 73 32     22%   71 29.81        
Sep 20 06:35 N 7 10 Clear CLR 72 30     22%   69 29.8        
Sep 20 06:15 NE 6 10 Clear CLR 72 32     23%   70 29.79        
Sep 20 05:55 NE 5 10 Clear CLR 72 32     23%   70 29.78        
Sep 20 05:35 NNE 3 10 Clear CLR 73 32     22%   71 29.78        
Sep 20 05:15 NNE 6 10 Clear CLR 73 30     20%   71 29.77        
Sep 20 04:55 NE 7 10 Clear CLR 75 30     19%   73 29.76        
Sep 20 04:35 NE 9 10 Clear CLR 75 30     19%   73 29.76        
Sep 20 04:15 NNE 10 10 Clear CLR 75 32     21%   73 29.76        
Sep 20 03:55 NNE 10 10 Clear CLR 77 30     18%   75 29.75        
Sep 20 03:35 NE 7 10 Clear CLR 77 28     17%   75 29.75        
Sep 20 03:15 NE 8 10 Clear CLR 77 23     13%   75 29.74        
Sep 20 02:55 NE 7 10 Clear CLR 75 23     14%   73 29.74        
Sep 20 02:35 NNE 10 10 Clear CLR 79 25     14%   77 29.74        
Sep 20 02:15 NNE 13 10 Clear CLR 79 23     13%   77 29.74        
Sep 20 01:55 NE 10 10 Clear CLR 77 23     13%   75 29.74        
Sep 20 01:35 NNE 13 10 Clear CLR 79 23     13%   77 29.73        
Sep 20 00:55 NNE 10 10 Clear CLR 81 21     11%   79 29.72        
Sep 20 00:35 NNE 17 10 Clear CLR 81        %     29.7        
Sep 20 00:15 NNE 15 10 Clear CLR 81 19     10%   79 29.69        
Sep 19 23:55   10 Clear CLR 81 21     11%   79 29.68        
Sep 19 23:35 NE 9 10 Clear CLR 82        %     29.69        
Sep 19 23:15 ESE 5 10 Clear CLR 84 21     10%   81 29.68        
Sep 19 22:55 SSW 8 10 Clear CLR 84 19     9%   81          
Sep 19 22:35 S 8 10 Clear CLR 84 23     11%   81 29.66        
Sep 19 22:15 SW 7 10 Clear CLR 86 27     12%   82 29.66        
Sep 19 21:55 W 11 10 Clear CLR 86 27     12%   82 29.65        
May 15 04:15 ESE 5 10 Clear CLR 68 14     12%     29.82        
Notice The following observation data may not be complete
May 15 03:35 Calm 10 Clear CLR   14      %     29.82        
May 14 23:15 Calm 10 Clear CLR 79 18     10%   77 29.79        
May 13 21:35 Calm 10 Clear CLR 81        %     29.8        
May 13 04:15 SSW 8 10 Clear CLR 70 36     28%     29.79        
May 13 01:35 SW 5 10 Clear CLR 75 34     22%   73 29.78        
May 12 23:35   10 Clear CLR 81 34     18%   79 29.76        
May 12 19:55 S 9 10 Clear CLR 84 21     10%   81 29.72        
May 12 12:56 SSE 6 20 Clear CLR 84 25     11%   81 29.77        
May 12 07:30 N 10 10 Clear CLR 72 37     29%   70 29.78        
May 12 01:35 SW 7 10 Clear CLR 77 36     22%   75 29.61        
May 12 00:55 SSE 11 10 Clear CLR 77 36     22%   75 29.6        
May 11 20:55 S 24 10 Clear and Windy CLR 88 30     13%   84 29.49        
May 11 20:35   10 Clear CLR 90 28     11%   85 29.47        
Jun 12 04:55 Calm 10 Clear CLR 68 30     24%     29.85        
Jun 11 22:55 SSW 14 10 Clear CLR 77 39     26%   76 29.71        
Jun 11 20:35 SSE 24 10 Clear and Windy CLR 88        %     29.6        
Jun 11 18:55   10 Clear CLR 93 28     10%   88 29.57        
Jun 11 11:15 S 16 10 Clear CLR 90        %     29.69        
Jun 11 10:35 S 21 10 Clear and Windy CLR 88 32     14%   84 29.69        
Jun 11 04:35 S 11 10 Clear CLR 79 39     24%   78 29.62        
Jun 11 01:35 S 15 10 Clear CLR 86 37     18%   83 29.58        
Jun 10 18:35   10 Clear CLR 97        %     29.53        
Jun 10 17:15 S 20 10 Clear and Windy CLR 99 36     11%   93 29.55        
Jun 10 16:55 S 18 10 Clear CLR 99 36     11%   93 29.56        
Jun 10 15:35 SSE 18 10 Clear CLR 99 34     10%   93          
Notice The following observation data may not be complete
Jun 10 14:55   10 Clear CLR          %              
Jun 10 05:35 SSE 10 10 Clear CLR 82 46     28%   81 29.67        
Jun 09 20:55   10 Clear CLR 99        %     29.57        
Jun 09 10:35 SSW 11 10 Clear CLR 95 28     9%   89 29.76        
Jun 09 04:55 Calm 10 Clear CLR 81 30     16%   79 29.75        
Jun 09 02:55 SSE 6 10 Clear CLR 82 27     13%   80 29.74        
Jun 08 21:35   10 Clear CLR 97 32     10%   91 29.69        
Jun 08 17:35 SSE 16 10 Clear CLR 104 30     8%   97 29.68        
Jun 07 18:35 S 17 10 Clear CLR 102 23     6%   95 29.7        
Jun 07 16:35 S 15 10 Clear CLR 104 19     5%   96          
Jun 07 15:55 S 21 10 Clear and Windy CLR 104 18     5%   96 29.75        
Jun 07 10:15 S 18 10 Clear CLR 93 32     11%   88 29.85        
Jun 06 12:55 SSW 16 10 Partly Cloudy SCT095 104 36     10%   98 29.79        
Jun 05 18:15 SSW 13 10 Clear CLR 108 34     8%   101          
Jun 05 16:15 SSW 21 10 Clear and Windy CLR 109 32     7%   102 29.66        
Jun 05 15:15   10 Clear CLR 108 36     9%   101          
Notice The following observation data may not be complete
Jun 05 12:55   10 Clear CLR          %